User: anonymous   Login
Location: Unspecified
(0.0000°N, 0.0000°E)
Time: 14:50:00
(UTC+00:00)
Language:

Courier 1B Rocket - Orbit

View from above orbital plane
View from above orbital plane
View from above satellite
View from above satellite

Ground track
Ground track

The orbit data is extracted from the following two-line orbital elements,

1    59U 60013B   19051.77326279  .00000101  00000-0  12659-4 0  9992
2    59  28.2478 177.6017 0189059 194.9746 164.5141 13.52965677881693
Epoch (UTC): 20 February 2019 18:33:29
Eccentricity: 0.0189059
inclination: 28.2478°
perigee height: 921 km
apogee height: 1202 km
right ascension of ascending node: 177.6017°
argument of perigee: 194.9746°
revolutions per day: 13.52965677
mean anomaly at epoch: 164.5141°
orbit number at epoch: 88169

The dashed part of the orbit path shows where the satellite is in the earth's shadow,  

DLR